TimeMST,TemperatureF,Dew PointF,Humidity,Sea Level PressureIn,VisibilityMPH,Wind Direction,Wind SpeedMPH,Gust SpeedMPH,PrecipitationIn,Events,Conditions,WindDirDegrees,DateUTC
12:10 AM,32.0,-9999,N/A,30.10,10.0,Calm,Calm,-,N/A,,Overcast,0,2012-11-17 07:10:00
12:30 AM,32.0,-9999,N/A,30.09,10.0,Calm,Calm,-,N/A,,Overcast,0,2012-11-17 07:30:00
12:50 AM,32.0,-9999,N/A,30.09,10.0,SE,3.5,-,N/A,,Overcast,130,2012-11-17 07:50:00
1:10 AM,32.0,-9999,N/A,30.09,10.0,Calm,Calm,-,N/A,,Overcast,0,2012-11-17 08:10:00
1:30 AM,30.2,-9999,N/A,30.09,10.0,Calm,Calm,-,N/A,,Overcast,0,2012-11-17 08:30:00
1:50 AM,30.2,-9999,N/A,30.09,10.0,Calm,Calm,-,N/A,,Overcast,0,2012-11-17 08:50:00
2:10 AM,30.2,-9999,N/A,30.09,10.0,South,3.5,-,N/A,,Overcast,170,2012-11-17 09:10:00
2:30 AM,32.0,-9999,N/A,30.09,10.0,Calm,Calm,-,N/A,,Overcast,0,2012-11-17 09:30:00
2:50 AM,32.0,-9999,N/A,30.09,10.0,SW,4.6,-,N/A,,Overcast,220,2012-11-17 09:50:00
3:10 AM,32.0,-9999,N/A,30.09,10.0,SW,4.6,-,N/A,,Overcast,230,2012-11-17 10:10:00
3:30 AM,32.0,-9999,N/A,30.09,10.0,WSW,4.6,-,N/A,,Overcast,240,2012-11-17 10:30:00
3:50 AM,32.0,-9999,N/A,30.09,10.0,SW,5.8,-,N/A,,Overcast,220,2012-11-17 10:50:00
4:10 AM,32.0,-9999,N/A,30.08,10.0,SSW,5.8,-,N/A,,Overcast,210,2012-11-17 11:10:00
4:30 AM,32.0,-9999,N/A,30.09,10.0,Calm,Calm,-,N/A,,Overcast,0,2012-11-17 11:30:00
4:50 AM,32.0,-9999,N/A,30.08,10.0,East,4.6,-,N/A,,Overcast,90,2012-11-17 11:50:00
5:10 AM,32.0,-9999,N/A,30.08,10.0,SE,3.5,-,N/A,,Overcast,130,2012-11-17 12:10:00
5:30 AM,33.8,-9999,N/A,30.08,10.0,Calm,Calm,-,N/A,,Overcast,0,2012-11-17 12:30:00
5:50 AM,32.0,-9999,N/A,30.08,10.0,Calm,Calm,-,N/A,,Overcast,0,2012-11-17 12:50:00
6:10 AM,32.0,-9999,N/A,30.08,10.0,South,5.8,-,N/A,,Overcast,170,2012-11-17 13:10:00
6:30 AM,32.0,-9999,N/A,30.08,10.0,Calm,Calm,-,N/A,,Overcast,0,2012-11-17 13:30:00
6:50 AM,33.8,-9999,N/A,30.08,10.0,SW,6.9,-,N/A,,Overcast,220,2012-11-17 13:50:00
7:10 AM,32.0,-9999,N/A,30.08,10.0,Calm,Calm,-,N/A,,Overcast,0,2012-11-17 14:10:00
7:30 AM,32.0,-9999,N/A,30.08,10.0,Calm,Calm,-,N/A,,Overcast,0,2012-11-17 14:30:00
7:50 AM,32.0,-9999,N/A,30.09,10.0,Calm,Calm,-,N/A,,Overcast,0,2012-11-17 14:50:00
8:10 AM,30.2,-9999,N/A,30.10,10.0,Calm,Calm,-,N/A,,Overcast,0,2012-11-17 15:10:00
8:30 AM,32.0,-9999,N/A,30.09,10.0,Calm,Calm,-,N/A,,Overcast,0,2012-11-17 15:30:00
8:50 AM,32.0,-9999,N/A,30.09,10.0,Calm,Calm,-,N/A,,Overcast,0,2012-11-17 15:50:00
9:10 AM,32.0,-9999,N/A,30.10,10.0,SSW,3.5,-,N/A,,Overcast,200,2012-11-17 16:10:00
9:30 AM,32.0,-9999,N/A,30.10,8.0,Calm,Calm,-,N/A,,Overcast,0,2012-11-17 16:30:00
9:50 AM,32.0,-9999,N/A,30.09,10.0,Calm,Calm,-,N/A,,Overcast,0,2012-11-17 16:50:00
10:10 AM,32.0,-9999,N/A,30.08,10.0,Calm,Calm,-,N/A,,Overcast,0,2012-11-17 17:10:00
10:30 AM,35.6,-9999,N/A,30.08,10.0,Calm,Calm,-,N/A,,Overcast,0,2012-11-17 17:30:00
10:50 AM,35.6,-9999,N/A,30.08,10.0,Calm,Calm,-,N/A,,Overcast,0,2012-11-17 17:50:00
11:10 AM,37.4,-9999,N/A,30.06,10.0,South,3.5,-,N/A,,Overcast,170,2012-11-17 18:10:00
11:30 AM,37.4,-9999,N/A,30.05,10.0,SSW,4.6,-,N/A,,Overcast,200,2012-11-17 18:30:00
11:50 AM,37.4,-9999,N/A,30.05,10.0,SSW,4.6,-,N/A,,Overcast,210,2012-11-17 18:50:00
12:10 PM,37.4,-9999,N/A,30.04,10.0,SW,6.9,-,N/A,,Overcast,220,2012-11-17 19:10:00
12:30 PM,37.4,-9999,N/A,30.04,8.0,SW,8.1,-,N/A,,Mostly Cloudy,220,2012-11-17 19:30:00
12:50 PM,35.6,-9999,N/A,30.03,10.0,SSW,3.5,-,N/A,,Mostly Cloudy,210,2012-11-17 19:50:00
1:10 PM,35.6,-9999,N/A,30.02,10.0,Calm,Calm,-,N/A,,Overcast,0,2012-11-17 20:10:00
1:30 PM,35.6,-9999,N/A,30.01,10.0,Calm,Calm,-,N/A,,Overcast,0,2012-11-17 20:30:00
1:50 PM,37.4,-9999,N/A,30.01,10.0,SW,4.6,-,N/A,,Overcast,220,2012-11-17 20:50:00
2:10 PM,37.4,-9999,N/A,30.01,10.0,SSW,4.6,-,N/A,,Overcast,200,2012-11-17 21:10:00
2:30 PM,37.4,-9999,N/A,30.00,10.0,Calm,Calm,-,N/A,,Overcast,0,2012-11-17 21:30:00
2:50 PM,37.4,-9999,N/A,30.00,10.0,Calm,Calm,-,N/A,,Overcast,0,2012-11-17 21:50:00
3:10 PM,37.4,-9999,N/A,30.00,10.0,Calm,Calm,-,N/A,,Overcast,0,2012-11-17 22:10:00
3:30 PM,35.6,-9999,N/A,29.99,10.0,NE,3.5,-,N/A,,Overcast,50,2012-11-17 22:30:00
3:50 PM,35.6,-9999,N/A,29.99,10.0,Calm,Calm,-,N/A,Rain,Light Rain,0,2012-11-17 22:50:00
4:10 PM,35.6,-9999,N/A,29.99,10.0,Calm,Calm,-,N/A,,Overcast,0,2012-11-17 23:10:00
4:30 PM,35.6,-9999,N/A,29.98,10.0,Calm,Calm,-,N/A,,Overcast,0,2012-11-17 23:30:00
5:10 PM,33.8,-9999,N/A,29.96,10.0,NNE,4.6,-,N/A,Rain,Light Rain,20,2012-11-18 00:10:00
5:30 PM,33.8,-9999,N/A,29.96,10.0,Calm,Calm,-,N/A,,Overcast,0,2012-11-18 00:30:00
5:50 PM,33.8,-9999,N/A,29.97,10.0,Calm,Calm,-,N/A,,Overcast,0,2012-11-18 00:50:00
6:10 PM,33.8,-9999,N/A,29.96,10.0,Calm,Calm,-,N/A,,Overcast,0,2012-11-18 01:10:00
6:30 PM,33.8,-9999,N/A,29.96,10.0,NW,4.6,-,N/A,,Overcast,310,2012-11-18 01:30:00
6:50 PM,33.8,-9999,N/A,29.95,10.0,South,4.6,-,N/A,,Mostly Cloudy,190,2012-11-18 01:50:00
7:10 PM,33.8,-9999,N/A,29.95,10.0,NNW,4.6,-,N/A,Rain,Light Rain,330,2012-11-18 02:10:00
7:30 PM,33.8,-9999,N/A,29.94,10.0,Calm,Calm,-,N/A,,Mostly Cloudy,0,2012-11-18 02:30:00
7:50 PM,32.0,-9999,N/A,29.94,10.0,Calm,Calm,-,N/A,,Overcast,0,2012-11-18 02:50:00
8:10 PM,32.0,-9999,N/A,29.93,10.0,North,3.5,-,N/A,,Overcast,360,2012-11-18 03:10:00
8:30 PM,33.8,-9999,N/A,29.92,10.0,ENE,4.6,-,N/A,,Overcast,60,2012-11-18 03:30:00
8:50 PM,32.0,-9999,N/A,29.93,10.0,WSW,5.8,-,N/A,,Overcast,240,2012-11-18 03:50:00
9:10 PM,32.0,-9999,N/A,29.92,10.0,Calm,Calm,-,N/A,,Overcast,0,2012-11-18 04:10:00
9:30 PM,32.0,-9999,N/A,29.91,10.0,Calm,Calm,-,N/A,,Overcast,0,2012-11-18 04:30:00
9:50 PM,32.0,-9999,N/A,29.91,10.0,Calm,Calm,-,N/A,,Overcast,0,2012-11-18 04:50:00
10:10 PM,33.8,-9999,N/A,29.91,10.0,SSW,3.5,-,N/A,Rain,Light Rain,210,2012-11-18 05:10:00
10:30 PM,35.6,-9999,N/A,29.91,7.0,SSW,8.1,-,N/A,Rain,Light Rain,210,2012-11-18 05:30:00
10:50 PM,35.6,-9999,N/A,29.90,10.0,SSW,6.9,-,N/A,,Mostly Cloudy,200,2012-11-18 05:50:00
11:10 PM,35.6,-9999,N/A,29.90,10.0,South,6.9,-,N/A,,Overcast,180,2012-11-18 06:10:00
11:30 PM,35.6,-9999,N/A,29.90,3.0,SSW,9.2,-,N/A,Rain,Light Rain,200,2012-11-18 06:30:00
11:50 PM,35.6,-9999,N/A,29.90,5.0,South,9.2,-,0.01,Rain,Light Rain,190,2012-11-18 06:50:00